Вернуться в каталог

STARLINK-2439

АктивенСвязьVLEO
NORAD 48104·PAYLOAD·🇺🇸 United States

Запущен Apr 7, 2021 с Cape Canaveral Space Force Station

Loading…

Ближайшие Пролёты (ближайшие 24 часа)

TLE

СвежийSource: CelesTrak SupGP

Эпоха: Sep 15, 2026, 01:58 UTC

1 48104C 21027N   26258.08243056  .00041904  00000+0  13474-2 0  2586
2 48104  53.1588 351.3926 0001229  93.5003 184.7318 15.31685076    17

Отслеживайте STARLINK-2439 в реальном времени с AllMySat

Download on the App Store